West Memphis, AR

1:11 AM CDT on October 01, 2016 (GMT -0500)
West Memphis Municipal

Weather History for KAWM - November, 2012

Change the Weather History Date:

Saturday, November 24, 2012

  Actual Average Record
Temperature  
Mean Temperature 36 °F -  
Max Temperature 44 °F 57 °F 76 °F (1973)
Min Temperature 28 °F 39 °F 14 °F (1970)
Degree Days  
Heating Degree Days 29    
Moisture  
Dew Point 23 °F    
Average Humidity 64    
Maximum Humidity 85    
Minimum Humidity 42    
Precipitation  
Precipitation 0.00 in - - ()
Sea Level Pressure  
Sea Level Pressure 30.30 in    
Wind  
Wind Speed 4 mph (North)    
Max Wind Speed 8 mph    
Max Gust Speed -    
Visibility 10 miles    
Events      
Averages and records for this station are not official NWS values.
T = Trace of Precipitation, MM = Missing Value Source: NWS Daily Summary

Daily Weather History Graph

Daily Weather History Graph

Search for Another Location

Airport or City:

Trip Planner

Search our weather history database for the weather conditions in past years. The results will help you decide how hot, cold, wet, or windy it might be!

Date:

Astronomy

Nov. 24, 2012 Rise Set
Actual Time 6:44 AM CST 4:50 PM CST
Civil Twilight 6:17 AM CST 5:17 PM CST
Nautical Twilight 5:46 AM CST 5:49 PM CST
Astronomical Twilight 5:15 AM CST 6:19 PM CST
Moon 2:29 PM CST (11/24) 3:08 AM CST (11/24)
Length of Visible Light 11h 00m
Length of Day
10h 05m
Waxing Gibbous, 87% of the Moon is Illuminated
Nov 24
Waxing Gibbous
Nov 28
Full
Dec 6
Last Quarter
Dec 13
New
Dec 19
First Quarter

Hourly Weather History & Observations

Time (CST) Temp. Windchill Dew Point Humidity Pressure Visibility Wind Dir Wind Speed Gust Speed Precip Events Conditions
12:53 AM 35.1 °F 31.0 °F 27.0 °F 72% 30.35 in 10.0 mi North 4.6 mph - N/A   Clear
1:53 AM 35.1 °F 28.6 °F 24.1 °F 64% 30.34 in 10.0 mi North 8.1 mph - N/A   Clear
2:53 AM 33.1 °F 26.9 °F 23.0 °F 66% 30.35 in 10.0 mi North 6.9 mph - N/A   Clear
3:53 AM 33.1 °F 27.7 °F 21.9 °F 64% 30.34 in 10.0 mi North 5.8 mph - N/A   Clear
4:53 AM 30.9 °F 25.2 °F 23.0 °F 72% 30.35 in 10.0 mi North 5.8 mph - N/A   Clear
5:53 AM 30.9 °F - 24.1 °F 76% 30.37 in 10.0 mi Calm Calm - N/A   Clear
6:53 AM 30.0 °F - 24.1 °F 79% 30.39 in 10.0 mi Calm Calm - N/A   Clear
7:53 AM 32.0 °F - 24.1 °F 73% 30.40 in 10.0 mi Calm Calm - N/A   Clear
8:53 AM 36.0 °F 29.6 °F 23.0 °F 59% 30.40 in 10.0 mi North 8.1 mph - N/A   Clear
9:53 AM 37.9 °F 32.1 °F 21.0 °F 51% 30.40 in 10.0 mi NNE 8.1 mph - N/A   Clear
10:53 AM 39.9 °F 35.8 °F 21.0 °F 47% 30.38 in 10.0 mi North 5.8 mph - N/A   Clear
11:53 AM 41.0 °F - 21.0 °F 45% 30.34 in 10.0 mi Calm Calm - N/A   Clear
12:53 PM 42.1 °F 37.7 °F 21.9 °F 45% 30.31 in 10.0 mi NNW 6.9 mph - N/A   Clear
1:53 PM 44.1 °F 40.1 °F 21.9 °F 42% 30.27 in 10.0 mi North 6.9 mph - N/A   Clear
2:53 PM 43.0 °F 41.3 °F 23.0 °F 45% 30.26 in 10.0 mi NNW 3.5 mph - N/A   Clear
3:53 PM 44.1 °F - 21.9 °F 42% 30.25 in 10.0 mi Calm Calm - N/A   Clear
4:53 PM 39.0 °F - 24.1 °F 55% 30.23 in 10.0 mi Calm Calm - N/A   Clear
5:53 PM 37.0 °F - 24.1 °F 59% 30.24 in 10.0 mi Calm Calm - N/A   Clear
6:53 PM 35.1 °F - 25.0 °F 67% 30.22 in 10.0 mi Calm Calm - N/A   Clear
7:53 PM 32.0 °F - 25.0 °F 75% 30.21 in 10.0 mi Calm Calm - N/A   Clear
8:53 PM 30.9 °F - 24.1 °F 76% 30.20 in 10.0 mi Calm Calm - N/A   Clear
9:53 PM 28.9 °F - 25.0 °F 85% 30.20 in 10.0 mi Calm Calm - N/A   Clear
10:53 PM 28.9 °F - 25.0 °F 85% 30.18 in 10.0 mi Calm Calm - N/A   Clear
11:53 PM 28.9 °F 23.9 °F 25.0 °F 85% 30.17 in 10.0 mi South 4.6 mph - N/A   Clear